Palermo, Italy

10:46 AM CET on November 20, 2017 (GMT +0100)
Punta Raisi

Weather History for LICJ - November, 2012

Change the Weather History Date:

Wednesday, November 28, 2012

  Actual Average Record
Temperature  
Mean Temperature 63 °F -  
Max Temperature 73 °F 61 °F 77 °F (2014)
Min Temperature 53 °F 53 °F 44 °F (2013)
Degree Days  
Heating Degree Days 2    
Growing Degree Days 13 (Base 50)    
Moisture  
Dew Point 50 °F    
Average Humidity 57    
Maximum Humidity 77    
Minimum Humidity 41    
Precipitation  
Precipitation 0.00 in 0.11 in - ()
Sea Level Pressure  
Sea Level Pressure 29.51 in    
Wind  
Wind Speed 24 mph ()    
Max Wind Speed 34 mph    
Max Gust Speed 54 mph    
Visibility 6.1 miles    
Events Rain    
Averages and records for this station are not official NWS values.
T = Trace of Precipitation, MM = Missing Value Source: Averaged Metar Reports

Daily Weather History Graph

Daily Weather History Graph

Search for Another Location

Airport or City:

Trip Planner

Search our weather history database for the weather conditions in past years. The results will help you decide how hot, cold, wet, or windy it might be!

Date:

Astronomy

Nov. 28, 2012 Rise Set
Actual Time 7:02 AM CET 4:48 PM CET
Civil Twilight 6:33 AM CET 5:17 PM CET
Nautical Twilight 6:01 AM CET 5:50 PM CET
Astronomical Twilight 5:29 AM CET 6:21 PM CET
Moon 4:50 PM CET (11/28) 6:45 AM CET (11/28)
Length of Visible Light 10h 43m
Length of Day
9h 46m
Full, 100% of the Moon is Illuminated
Nov 28
Full
Nov 28
Full
Dec 6
Last Quarter
Dec 13
New
Dec 20
First Quarter

Hourly Weather History & Observations

Time (CET) Temp. Dew Point Humidity Pressure Visibility Wind Dir Wind Speed Gust Speed Precip Events Conditions
12:20 AM 71.6 °F 48.2 °F 43% 29.65 in - South 31.1 mph 42.6 mph N/A   Clear
12:50 AM 71.6 °F 46.4 °F 41% 29.65 in - SSE 26.5 mph 40.3 mph N/A   Clear
1:20 AM 71.6 °F 46.4 °F 41% 29.62 in - SSE 27.6 mph - N/A   Clear
1:50 AM 71.6 °F 48.2 °F 43% 29.62 in - South 26.5 mph 41.4 mph N/A   Clear
2:20 AM 73.4 °F 48.2 °F 41% 29.59 in - SSE 27.6 mph 41.4 mph N/A   Clear
2:50 AM 73.4 °F 48.2 °F 41% 29.56 in - South 28.8 mph 40.3 mph N/A   Clear
3:20 AM 73.4 °F 51.8 °F 47% 29.56 in - South 33.4 mph 44.9 mph N/A   Clear
3:50 AM 73.4 °F 53.6 °F 50% 29.53 in - South 32.2 mph 54.1 mph N/A   Clear
4:20 AM 73.4 °F 53.6 °F 50% 29.50 in - South 34.5 mph 48.3 mph N/A   Clear
4:50 AM 71.6 °F 55.4 °F 57% 29.50 in - South 25.3 mph 42.6 mph N/A   Clear
5:20 AM 71.6 °F 53.6 °F 53% 29.50 in - South 27.6 mph 51.8 mph N/A   Clear
5:50 AM 71.6 °F 53.6 °F 53% 29.50 in - South 23.0 mph 39.1 mph N/A   Clear
6:20 AM 71.6 °F 53.6 °F 53% 29.47 in - South 23.0 mph 39.1 mph N/A   Clear
6:50 AM 71.6 °F 51.8 °F 50% 29.47 in - South 26.5 mph 40.3 mph N/A   Clear
7:20 AM 69.8 °F 51.8 °F 53% 29.47 in - South 20.7 mph 35.7 mph N/A   Clear
7:50 AM 69.8 °F 51.8 °F 53% 29.47 in 6.2 mi South 26.5 mph 43.7 mph N/A   Partly Cloudy
8:20 AM 69.8 °F 53.6 °F 56% 29.47 in 6.2 mi South 24.2 mph 41.4 mph N/A   Partly Cloudy
8:50 AM 69.8 °F 55.4 °F 60% 29.47 in 6.2 mi South 25.3 mph 40.3 mph N/A   Partly Cloudy
9:20 AM 69.8 °F 55.4 °F 60% 29.47 in 6.2 mi SSW 26.5 mph 41.4 mph N/A   Scattered Clouds
9:50 AM 71.6 °F 53.6 °F 53% 29.47 in 6.2 mi South 23.0 mph 43.7 mph N/A   Scattered Clouds
10:20 AM 71.6 °F 53.6 °F 53% 29.47 in 6.2 mi South 20.7 mph 36.8 mph N/A   Scattered Clouds
10:50 AM 66.2 °F 55.4 °F 68% 29.47 in 5.6 mi South 23.0 mph 40.3 mph N/A Rain Light Rain
11:20 AM 68.0 °F 59.0 °F 73% 29.44 in 6.2 mi SSW 18.4 mph - N/A   Scattered Clouds
11:50 AM 69.8 °F 57.2 °F 64% 29.44 in 6.2 mi SSW 28.8 mph 43.7 mph N/A   Scattered Clouds
12:20 PM 68.0 °F 55.4 °F 64% 29.44 in 6.2 mi SSW 27.6 mph 40.3 mph N/A   Scattered Clouds
12:50 PM 66.2 °F 57.2 °F 73% 29.44 in 6.2 mi SW 27.6 mph - N/A   Scattered Clouds
1:20 PM 62.6 °F 53.6 °F 72% 29.44 in 6.2 mi WSW 32.2 mph - N/A   Scattered Clouds
1:50 PM 62.6 °F 53.6 °F 72% 29.47 in 6.2 mi WSW 29.9 mph - N/A   Scattered Clouds
2:20 PM 62.6 °F 50.0 °F 63% 29.47 in 6.2 mi SW 26.5 mph - N/A   Scattered Clouds
2:50 PM 64.4 °F 51.8 °F 64% 29.47 in 6.2 mi SW 26.5 mph - N/A   Scattered Clouds
3:20 PM 62.6 °F 50.0 °F 63% 29.47 in 6.2 mi SW 27.6 mph - N/A   Scattered Clouds
3:50 PM 62.6 °F 48.2 °F 59% 29.50 in 6.2 mi SW 26.5 mph - N/A   Scattered Clouds
4:20 PM 60.8 °F 46.4 °F 59% 29.50 in 6.2 mi SW 26.5 mph - N/A   Scattered Clouds
4:50 PM 60.8 °F 48.2 °F 63% 29.50 in 6.2 mi SW 26.5 mph - N/A   Scattered Clouds
5:20 PM 62.6 °F 46.4 °F 55% 29.50 in 6.2 mi WSW 27.6 mph - N/A   Scattered Clouds
5:50 PM 60.8 °F 44.6 °F 55% 29.53 in 6.2 mi WSW 27.6 mph - N/A   Scattered Clouds
6:20 PM 59.0 °F 44.6 °F 59% 29.53 in 6.2 mi SW 19.6 mph - N/A   Partly Cloudy
6:50 PM 59.0 °F 42.8 °F 55% 29.53 in 6.2 mi SSW 17.3 mph - N/A   Partly Cloudy
7:20 PM 59.0 °F 42.8 °F 55% 29.53 in 6.2 mi SSW 17.3 mph - N/A   Scattered Clouds
7:50 PM 57.2 °F 42.8 °F 59% 29.56 in 6.2 mi South 25.3 mph 36.8 mph N/A   Scattered Clouds
8:20 PM 59.0 °F 41.0 °F 51% 29.53 in 6.2 mi South 19.6 mph - N/A   Scattered Clouds
8:50 PM 59.0 °F 42.8 °F 55% 29.56 in 6.2 mi SSW 19.6 mph - N/A   Scattered Clouds
9:20 PM 57.2 °F 42.8 °F 59% 29.56 in 6.2 mi South 21.9 mph - N/A   Scattered Clouds
9:50 PM 59.0 °F 42.8 °F 55% 29.56 in 5.0 mi SSW 21.9 mph - N/A Rain Rain
10:20 PM 53.6 °F 46.4 °F 77% 29.56 in 5.0 mi South 23.0 mph 35.7 mph N/A Rain Rain
10:50 PM 55.4 °F 46.4 °F 72% 29.56 in 6.2 mi South 15.0 mph - N/A Rain Light Rain
11:20 PM 55.4 °F 42.8 °F 63% 29.56 in 6.2 mi South 17.3 mph - N/A   Scattered Clouds
11:50 PM 55.4 °F 42.8 °F 63% 29.56 in 6.2 mi South 19.6 mph - N/A   Scattered Clouds